DW5977 Weather Reports


time (UTC)temp
C
wind
direction
speed
KPH
gust
KPH
rain 1hr
cm
rain 24hr
cm
rain mn
cm
humidity
%
barometer
mb
20260507151503 10 236 6.4 16.1 0.00 0.03 0.00 58 1011.6
20260507151003 10 237 6.4 12.9 0.00 0.03 0.00 58 1011.6
20260507150503 10 245 6.4 14.5 0.00 0.03 0.00 59 1011.6
20260507150003 10 235 6.4 14.5 0.00 0.03 0.00 60 1011.7
20260507145503 10 233 6.4 17.7 0.00 0.03 0.00 59 1011.7
20260507145003 10 218 6.4 17.7 0.00 0.03 0.00 61 1011.7
20260507144503 10 213 8.0 16.1 0.00 0.03 0.00 62 1011.6
20260507144003 10 229 6.4 16.1 0.00 0.03 0.00 62 1011.7
20260507143503 9 228 4.8 17.7 0.00 0.03 0.00 62 1011.7
20260507143003 10 217 4.8 17.7 0.00 0.03 0.00 64 1011.7
20260507142503 9 202 3.2 12.9 0.00 0.03 0.00 62 1011.7
20260507142003 9 203 3.2 12.9 0.00 0.03 0.00 63 1011.8
20260507141503 9 243 3.2 8.0 0.00 0.03 0.00 64 1011.8
20260507141003 8 227 4.8 12.9 0.00 0.03 0.00 66 1011.9
20260507140524 8 172 3.2 12.9 0.00 0.03 0.00 64 1011.9
20260507140003 8 136 3.2 9.7 0.00 0.03 0.00 65 1011.9
20260507135503 8 124 1.6 8.0 0.00 0.03 0.00 67 1012.0
20260507135003 8 119 3.2 6.4 0.00 0.03 0.00 68 1012.0
20260507134503 8 112 1.6 6.4 0.00 0.03 0.00 67 1012.1
20260507134003 8 105 1.6 4.8 0.00 0.03 0.00 69 1012.1
20260507133503 7 105 1.6 4.8 0.00 0.03 0.00 69 1012.1
20260507133003 7 98 1.6 9.7 0.00 0.03 0.00 70 1012.2
20260507132503 7 93 3.2 9.7 0.00 0.03 0.00 71 1012.2
20260507132003 7 88 1.6 9.7 0.00 0.03 0.00 74 1012.2
20260507131503 7 83 1.6 6.4 0.00 0.03 0.00 77 1012.2
20260507131003 7 80 3.2 6.4 0.00 0.03 0.00 78 1012.1
20260507130503 6 96 3.2 6.4 0.00 0.03 0.00 80 1012.2
20260507130003 6 112 4.8 11.3 0.00 0.05 0.00 81 1012.4
20260507125503 6 95 3.2 11.3 0.00 0.05 0.00 84 1012.3
20260507125003 5 98 3.2 8.0 0.00 0.05 0.00 89 1012.5
20260507124524 5 129 3.2 9.7 0.00 0.05 0.00 91 1012.5
20260507124003 5 137 3.2 9.7 0.00 0.05 0.00 91 1012.5
20260507123524 5 276 1.6 6.4 0.00 0.08 0.00 93 1012.5
20260507123003 5 282 1.6 4.8 0.00 0.08 0.00 93 1012.5
20260507122503 5 282 0.0 3.2 0.00 0.08 0.00 93 1012.6
20260507122024 5 282 0.0 1.6 0.00 0.10 0.00 93 1012.6
20260507121503 4 0 0.0 0.0 0.00 0.10 0.00 92 1012.6
20260507121003 4 0 0.0 0.0 0.00 0.10 0.00 93 1012.5
20260507120524 4 0 0.0 0.0 0.00 0.10 0.00 93 1012.4
20260507120003 4 0 0.0 0.0 0.00 0.10 0.00 93 1012.6
20260507115503 3 0 0.0 0.0 0.00 0.10 0.00 92 1012.6
20260507115003 3 0 0.0 0.0 0.00 0.10 0.00 92 1012.6
20260507114503 3 0 0.0 0.0 0.00 0.10 0.00 92 1012.7
20260507114003 3 0 0.0 0.0 0.00 0.13 0.00 92 1012.7
20260507113524 3 0 0.0 0.0 0.00 0.13 0.00 92 1012.7
20260507113003 3 0 0.0 0.0 0.00 0.13 0.00 93 1012.6
20260507112503 3 0 0.0 0.0 0.00 0.13 0.00 92 1012.5
20260507112024 3 0 0.0 0.0 0.00 0.15 0.00 92 1012.5
20260507111503 3 0 0.0 0.0 0.00 0.15 0.00 93 1012.4
20260507111003 3 0 0.0 0.0 0.00 0.18 0.00 92 1012.2
20260507110503 3 0 0.0 0.0 0.00 0.18 0.00 92 1012.1
20260507110003 3 0 0.0 0.0 0.00 0.18 0.00 92 1011.9
20260507105503 2 0 0.0 0.0 0.00 0.20 0.00 92 1011.9
20260507105003 2 0 0.0 0.0 0.00 0.20 0.00 92 1011.9
20260507104503 2 0 0.0 0.0 0.00 0.20 0.00 92 1012.0
20260507104024 2 0 0.0 0.0 0.00 0.23 0.00 92 1011.9
20260507103503 2 0 0.0 0.0 0.00 0.23 0.00 92 1011.9
20260507103003 2 0 0.0 0.0 0.00 0.25 0.00 92 1011.8
20260507102524 2 0 0.0 0.0 0.00 0.25 0.00 92 1011.7
20260507102003 2 0 0.0 0.0 0.00 0.25 0.00 92 1011.7
20260507101503 2 0 0.0 0.0 0.00 0.28 0.00 92 1011.8
20260507101024 2 0 0.0 0.0 0.00 0.28 0.00 92 1011.8
20260507100503 2 0 0.0 0.0 0.00 0.30 0.00 92 1011.7
20260507100003 1 0 0.0 0.0 0.00 0.30 0.00 92 1011.7
20260507095503 1 0 0.0 0.0 0.00 0.33 0.00 92 1011.6
20260507095003 1 0 0.0 0.0 0.00 0.33 0.00 91 1011.6
20260507094503 1 0 0.0 0.0 0.00 0.36 0.00 91 1011.6
20260507094003 1 0 0.0 0.0 0.00 0.36 0.00 91 1011.7
20260507093503 1 0 0.0 0.0 0.00 0.38 0.00 92 1011.7
20260507093003 1 0 0.0 0.0 0.00 0.38 0.00 91 1011.7
20260507092503 1 0 0.0 0.0 0.00 0.41 0.00 91 1011.8
20260507092003 1 0 0.0 0.0 0.00 0.43 0.00 91 1011.7
20260507091503 1 0 0.0 0.0 0.00 0.43 0.00 91 1011.7
20260507091003 1 0 0.0 0.0 0.00 0.46 0.00 91 1011.6
20260507090503 1 0 0.0 0.0 0.00 0.48 0.00 91 1011.7
20260507090003 1 0 0.0 0.0 0.00 0.51 0.00 91 1011.7
20260507085503 1 0 0.0 0.0 0.00 0.53 0.00 91 1011.7
20260507085003 1 0 0.0 0.0 0.00 0.56 0.00 90 1011.8
20260507084503 1 0 0.0 0.0 0.00 0.56 0.00 90 1011.7
20260507084003 1 0 0.0 0.0 0.00 0.58 0.00 90 1011.8
20260507083503 2 0 0.0 0.0 0.00 0.61 0.00 90 1011.9
20260507083003 2 0 0.0 0.0 0.00 0.64 0.00 90 1011.8
20260507082503 2 0 0.0 0.0 0.00 0.66 0.00 90 1011.7
20260507082003 2 0 0.0 0.0 0.00 0.66 0.00 90 1011.7
20260507081503 2 0 0.0 0.0 0.00 0.69 0.00 90 1011.7
20260507081003 2 0 0.0 0.0 0.00 0.69 0.00 90 1011.7
20260507080503 2 0 0.0 0.0 0.00 0.69 0.00 90 1011.7
20260507080003 2 0 0.0 0.0 0.00 0.71 0.00 90 1011.8
20260507075503 2 0 0.0 0.0 0.00 0.71 0.00 90 1011.8
20260507075003 2 0 0.0 0.0 0.00 0.71 0.00 90 1011.8
20260507074503 2 0 0.0 0.0 0.00 0.74 0.00 90 1011.7
20260507074003 2 0 0.0 0.0 0.00 0.74 0.00 90 1011.7
20260507073524 2 0 0.0 0.0 0.00 0.74 0.00 90 1011.7
20260507073003 3 0 0.0 0.0 0.00 0.76 0.00 90 1011.8
20260507072503 3 0 0.0 0.0 0.00 0.76 0.00 89 1011.7
20260507072003 3 0 0.0 0.0 0.00 0.76 0.00 90 1011.6
20260507071503 3 0 0.0 0.0 0.00 0.79 0.00 90 1011.7
20260507071003 3 0 0.0 0.0 0.00 0.79 0.00 90 1011.6
20260507070503 3 0 0.0 0.0 0.00 0.81 0.00 90 1011.6
20260507070004 3 0 0.0 0.0 0.00 0.84 0.00 89 1011.7
20260507065503 3 0 0.0 0.0 0.00 0.84 0.00 90 1011.8
20260507065003 4 0 0.0 0.0 0.00 0.86 0.00 89 1011.9
20260507064503 4 0 0.0 0.0 0.00 0.89 0.00 90 1012.0
20260507064003 4 0 0.0 0.0 0.00 0.89 0.00 89 1012.2
20260507063524 4 0 0.0 0.0 0.00 0.91 0.00 89 1012.2
20260507063003 5 0 0.0 0.0 0.00 0.97 0.00 89 1012.2
20260507062503 5 0 0.0 0.0 0.00 0.97 0.00 89 1012.2
20260507062003 5 0 0.0 0.0 0.00 0.99 0.00 89 1012.2
20260507061503 5 0 0.0 0.0 0.00 1.02 0.00 89 1012.0
20260507061003 5 0 0.0 0.0 0.00 1.02 0.00 89 1012.0
20260507060503 5 0 0.0 0.0 0.00 1.04 0.00 89 1012.0
20260507060003 5 0 0.0 0.0 0.00 1.04 0.00 89 1012.1
20260507055503 5 0 0.0 0.0 0.00 1.07 0.00 89 1012.2
20260507055003 5 0 0.0 0.0 0.00 1.07 0.00 89 1012.3
20260507054503 5 0 0.0 0.0 0.00 1.09 0.00 89 1012.3
20260507054003 5 0 0.0 0.0 0.00 1.09 0.00 88 1012.2
20260507053503 5 0 0.0 0.0 0.00 1.12 0.00 88 1012.4
20260507053024 5 0 0.0 0.0 0.00 1.14 0.00 88 1012.4
20260507052503 5 0 0.0 0.0 0.00 1.17 0.00 88 1012.5
20260507052003 5 0 0.0 0.0 0.00 1.19 0.00 88 1012.5
20260507051503 5 0 0.0 0.0 0.00 1.22 0.00 88 1012.6
20260507051003 5 0 0.0 0.0 0.00 1.24 0.00 88 1012.6
20260507050503 6 0 0.0 0.0 0.00 1.27 0.00 87 1012.6
20260507050003 6 0 0.0 0.0 0.00 1.30 0.00 88 1012.7
20260507045503 6 0 0.0 0.0 0.00 1.32 0.00 87 1012.7
20260507045003 6 0 0.0 0.0 0.00 1.37 0.00 87 1012.6
20260507044503 6 0 0.0 0.0 0.00 1.40 0.00 87 1012.7
20260507044003 6 0 0.0 0.0 0.00 1.42 0.00 87 1012.8
20260507043503 6 0 0.0 0.0 0.00 1.45 0.00 87 1012.7
20260507043003 6 0 0.0 0.0 0.00 1.47 0.00 87 1012.7
20260507042503 6 273 0.0 1.6 0.00 1.50 0.00 87 1012.6
20260507042003 6 273 0.0 1.6 0.00 1.52 0.00 87 1012.7
20260507041503 6 273 0.0 1.6 0.00 1.55 0.00 87 1012.6
20260507041003 6 273 0.0 3.2 0.00 1.57 0.00 87 1012.6
20260507040503 6 273 0.0 3.2 0.00 1.60 0.00 87 1012.6
20260507040003 6 273 0.0 3.2 0.00 1.60 0.00 87 1012.6
20260507035503 6 273 0.0 1.6 0.00 1.60 1.60 87 1012.5
20260507035003 6 273 0.0 3.2 0.00 1.63 1.60 87 1012.5
20260507034503 6 273 0.0 3.2 0.00 1.63 1.60 87 1012.4
20260507034003 6 274 1.6 4.8 0.00 1.65 1.60 87 1012.5
20260507033503 6 275 1.6 4.8 0.00 1.65 1.60 87 1012.5
20260507033024 6 275 1.6 4.8 0.00 1.68 1.60 87 1012.6
20260507032503 6 276 1.6 4.8 0.00 1.68 1.60 87 1012.5
20260507032003 6 279 1.6 4.8 0.00 1.68 1.60 87 1012.5
20260507031503 6 279 1.6 4.8 0.00 1.70 1.60 87 1012.5
20260507031003 6 279 0.0 3.2 0.00 1.73 1.60 87 1012.5
20260507030503 6 291 1.6 6.4 0.00 1.73 1.60 87 1012.6
20260507030003 6 297 1.6 6.4 0.00 1.75 1.60 87 1012.7
20260507025524 6 308 0.0 3.2 0.00 1.78 1.60 87 1012.7
20260507025003 6 308 0.0 3.2 0.00 1.80 1.60 87 1012.6
20260507024503 6 308 0.0 3.2 0.00 1.83 1.60 87 1012.5
20260507024003 6 308 0.0 1.6 0.00 1.85 1.60 87 1012.5
20260507023524 6 0 0.0 0.0 0.00 1.85 1.60 87 1012.5
20260507023003 6 0 0.0 0.0 0.00 1.88 1.60 87 1012.5
20260507022503 6 0 0.0 0.0 0.00 1.88 1.60 87 1012.6
20260507022024 6 308 0.0 1.6 0.00 1.88 1.60 87 1012.6
20260507021503 6 308 0.0 1.6 0.00 1.88 1.60 87 1012.6
20260507021024 6 0 0.0 0.0 0.00 1.91 1.60 87 1012.6
20260507020503 6 308 0.0 1.6 0.00 1.91 1.60 87 1012.7
20260507020003 6 308 0.0 1.6 0.00 1.91 1.60 87 1012.7
20260507015503 6 308 0.0 1.6 0.00 1.91 1.60 87 1012.7
20260507015024 6 0 0.0 0.0 0.00 1.91 1.60 87 1012.8
20260507014524 6 0 0.0 0.0 0.00 1.91 1.60 87 1012.8
20260507014024 6 308 0.0 1.6 0.00 1.91 1.60 87 1012.8
20260507013524 6 308 0.0 1.6 0.00 1.93 1.60 87 1012.8
20260507013003 6 0 0.0 0.0 0.00 1.93 1.60 87 1012.9
20260507012503 6 0 0.0 0.0 0.00 1.93 1.60 87 1012.8
20260507012003 6 308 0.0 1.6 0.00 1.96 1.60 87 1012.6
20260507011524 6 308 0.0 1.6 0.00 1.96 1.60 87 1012.5
20260507011024 6 308 0.0 1.6 0.00 1.96 1.60 87 1012.5
20260507010503 6 308 0.0 1.6 0.00 1.98 1.60 86 1012.3
20260507010003 6 0 0.0 0.0 0.00 1.98 1.60 86 1012.3
20260507005524 6 0 0.0 0.0 0.00 2.01 1.60 86 1012.2
20260507005024 6 0 0.0 0.0 0.00 2.01 1.60 86 1012.2
20260507004503 6 0 0.0 0.0 0.00 2.03 1.60 86 1012.2
20260507004003 6 308 0.0 3.2 0.00 2.06 1.60 86 1012.2
20260507003503 6 308 0.0 3.2 0.00 2.08 1.60 86 1012.2
20260507003003 6 308 0.0 3.2 0.00 2.11 1.60 86 1012.1
20260507002503 6 308 0.0 3.2 0.00 2.13 1.60 86 1011.9
20260507002003 6 308 1.6 4.8 0.00 2.16 1.60 86 1011.9
20260507001503 6 308 1.6 4.8 0.00 2.16 1.60 85 1011.8
20260507001003 6 308 1.6 4.8 0.00 2.16 1.60 85 1011.8
20260507000503 6 308 1.6 4.8 0.00 2.18 1.60 85 1011.8
20260507000003 6 309 0.0 3.2 0.00 2.21 1.60 85 1011.7
20260506235503 6 309 0.0 4.8 0.00 2.21 1.60 86 1011.6
20260506235003 6 309 0.0 4.8 0.00 2.24 1.60 86 1011.6
20260506234503 6 309 0.0 1.6 0.00 2.24 1.60 86 1011.6
20260506234003 6 309 0.0 4.8 0.00 2.26 1.60 86 1011.7
20260506233503 6 309 1.6 4.8 0.00 2.29 1.60 86 1011.6
20260506233003 6 309 1.6 3.2 0.00 2.31 1.60 86 1011.6
20260506232503 6 309 1.6 4.8 0.00 2.31 1.60 86 1011.7
20260506232003 6 309 1.6 4.8 0.00 2.34 1.60 86 1011.6
20260506231503 6 309 1.6 6.4 0.00 2.34 1.60 86 1011.6
20260506231024 6 309 1.6 6.4 0.00 2.36 1.60 86 1011.6
20260506230503 6 309 1.6 6.4 0.00 2.36 1.60 86 1011.4
20260506230003 6 310 3.2 6.4 0.00 2.39 1.60 86 1011.4
20260506225524 6 311 3.2 6.4 0.00 2.41 1.60 87 1011.4
20260506225024 6 306 1.6 6.4 0.00 2.44 1.60 87 1011.4
20260506224524 6 304 3.2 6.4 0.00 2.46 1.60 87 1011.4
20260506224003 6 299 3.2 6.4 0.00 2.49 1.60 87 1011.3
20260506223503 6 298 3.2 12.9 0.00 2.51 1.60 87 1011.1
20260506223024 6 299 3.2 12.9 0.00 2.54 1.60 87 1010.9
20260506222503 6 293 3.2 11.3 0.00 2.57 1.60 87 1011.0
20260506222003 6 289 3.2 14.5 0.00 2.59 1.60 87 1010.9
20260506221503 6 290 4.8 14.5 0.00 2.64 1.60 87 1010.7
20260506221003 6 288 4.8 14.5 0.00 2.69 1.60 87 1010.6
20260506220503 6 297 4.8 12.9 0.00 2.72 1.60 87 1010.6
20260506220003 6 300 4.8 11.3 0.00 2.74 1.60 88 1010.6
20260506215524 6 295 4.8 14.5 0.00 2.77 1.60 88 1010.6
20260506215003 6 287 6.4 17.7 0.00 2.82 1.60 87 1010.6
20260506214503 6 278 8.0 17.7 0.00 2.84 1.60 87 1010.6
20260506214003 6 281 9.7 17.7 0.00 2.90 1.60 87 1010.5
20260506213503 6 279 11.3 20.9 0.00 2.92 1.60 86 1010.3
20260506213003 7 278 11.3 20.9 0.00 2.95 1.60 85 1010.3
20260506212503 7 276 9.7 20.9 0.00 2.97 1.60 84 1010.3
20260506212003 8 270 9.7 22.5 0.00 3.00 1.60 83 1010.2
20260506211503 8 252 9.7 22.5 0.00 3.05 1.60 83 1009.8
20260506211003 8 246 9.7 22.5 0.00 3.10 1.60 83 1009.7
20260506210503 8 254 11.3 22.5 0.00 3.12 1.60 82 1009.7
20260506210003 9 252 9.7 20.9 0.00 3.15 1.60 82 1009.7
20260506205503 9 250 9.7 25.7 0.00 3.17 1.60 82 1009.6
20260506205003 9 248 11.3 25.7 0.00 3.17 1.60 81 1009.5
20260506204503 10 248 11.3 25.7 0.00 3.23 1.60 79 1009.5
20260506204003 10 243 11.3 25.7 0.00 3.23 1.60 78 1009.6
20260506203503 10 237 9.7 25.7 0.00 3.25 1.60 77 1009.5
20260506203003 10 251 9.7 25.7 0.00 3.25 1.60 76 1009.5
20260506202503 10 252 11.3 25.7 0.00 3.25 1.60 75 1009.6
20260506202003 11 235 11.3 25.7 0.00 3.25 1.60 73 1009.5
20260506201503 11 232 9.7 20.9 0.00 3.25 1.60 73 1009.3
20260506201003 11 244 9.7 20.9 0.00 3.25 1.60 72 1009.3
20260506200503 11 246 8.0 20.9 0.00 3.25 1.60 71 1009.3
20260506200024 11 252 8.0 19.3 0.00 3.25 1.60 72 1009.2
20260506195503 11 260 9.7 20.9 0.00 3.25 1.60 71 1009.1
20260506195003 11 259 8.0 20.9 0.00 3.25 1.60 71 1009.2
20260506194503 11 261 9.7 20.9 0.00 3.25 1.60 73 1009.2
20260506194003 11 252 9.7 20.9 0.00 3.25 1.60 73 1009.2
20260506193503 11 243 6.4 19.3 0.00 3.25 1.60 74 1009.3
20260506193003 10 249 4.8 12.9 0.00 3.25 1.60 78 1009.2
20260506192503 10 253 8.0 16.1 0.00 3.25 1.60 77 1009.3
20260506192003 10 227 6.4 19.3 0.00 3.25 1.60 78 1009.2
20260506191524 10 192 3.2 19.3 0.00 3.25 1.60 80 1009.2
20260506191003 10 164 0.0 6.4 0.00 3.25 1.60 79 1009.2
20260506190524 10 164 1.6 6.4 0.00 3.25 1.60 80 1009.1
20260506190003 10 164 1.6 6.4 0.00 3.25 1.60 81 1009.1
20260506185503 10 165 1.6 6.4 0.00 3.25 1.60 80 1009.1
20260506185024 10 165 1.6 3.2 0.00 3.25 1.60 80 1009.1
20260506184524 10 165 1.6 6.4 0.00 3.25 1.60 80 1009.0
20260506184003 10 165 1.6 6.4 0.00 3.25 1.60 80 1009.1
20260506183503 10 166 1.6 6.4 0.00 3.25 1.60 81 1009.1
20260506183003 10 167 1.6 6.4 0.00 3.25 1.60 81 1009.2
20260506182503 10 167 1.6 6.4 0.00 3.25 1.60 82 1009.3
20260506182003 10 167 1.6 6.4 0.00 3.25 1.60 83 1009.3
20260506181503 9 167 1.6 6.4 0.00 3.25 1.60 83 1009.3
20260506181003 9 167 3.2 6.4 0.00 3.25 1.60 84 1009.3
20260506180503 9 167 3.2 6.4 0.00 3.25 1.60 85 1009.3
20260506180003 9 219 3.2 8.0 0.00 3.25 1.60 86 1009.3
20260506175524 9 283 1.6 8.0 0.03 3.25 1.60 85 1009.3
20260506175003 8 295 1.6 3.2 0.03 3.25 1.60 86 1009.3
20260506174503 8 295 0.0 3.2 0.03 3.25 1.60 87 1009.3
20260506174003 8 296 1.6 3.2 0.03 3.25 1.60 88 1009.3
20260506173503 8 296 1.6 4.8 0.03 3.25 1.60 88 1009.4
20260506173003 8 297 1.6 4.8 0.03 3.25 1.60 88 1009.3
20260506172503 8 297 1.6 4.8 0.03 3.25 1.60 88 1009.3
20260506172003 8 297 1.6 3.2 0.03 3.25 1.60 89 1009.4
20260506171503 8 297 0.0 3.2 0.03 3.25 1.60 89 1009.4
20260506171003 8 297 0.0 3.2 0.03 3.25 1.60 89 1009.4
20260506170503 8 297 0.0 3.2 0.03 3.25 1.60 88 1009.5
20260506170004 8 297 1.6 4.8 0.03 3.25 1.60 87 1009.4
20260506165524 8 297 1.6 4.8 0.00 3.23 1.57 87 1009.4
20260506165003 8 297 3.2 6.4 0.00 3.23 1.57 86 1009.2
20260506164503 8 298 1.6 6.4 0.00 3.23 1.57 85 1009.2
20260506164003 8 298 0.0 4.8 0.00 3.23 1.57 85 1009.2
20260506163503 9 5 0.0 1.6 0.00 3.23 1.57 85 1009.1
20260506163003 8 5 0.0 4.8 0.00 3.23 1.57 86 1009.0
20260506162503 8 7 1.6 4.8 0.00 3.23 1.57 86 1009.0
20260506162003 8 8 3.2 4.8 0.00 3.23 1.57 86 1008.9
20260506161503 8 7 3.2 4.8 0.00 3.23 1.57 86 1008.9
20260506161003 8 6 1.6 4.8 0.00 3.23 1.57 86 1009.1
20260506160503 8 22 1.6 4.8 0.00 3.23 1.57 87 1009.0
20260506160003 8 37 1.6 4.8 0.00 3.23 1.57 87 1009.0
20260506155503 8 37 1.6 4.8 0.00 3.23 1.57 88 1009.0
20260506155003 8 37 1.6 4.8 0.00 3.23 1.57 88 1009.1
20260506154503 8 37 1.6 4.8 0.00 3.23 1.57 88 1009.1
20260506154003 8 37 1.6 4.8 0.00 3.23 1.57 89 1008.9
20260506153503 8 37 1.6 4.8 0.00 3.23 1.57 90 1008.9
20260506153003 8 37 1.6 4.8 0.00 3.23 1.57 90 1008.9
20260506152503 8 28 1.6 8.0 0.00 3.23 1.57 90 1008.8
20260506152003 8 19 3.2 8.0 0.00 3.23 1.57 90 1008.8